Вернуться в каталог

JILIN-1-03

АктивенНаукаSSO
NORAD 41914·PAYLOAD·🇨🇳 China

Запущен Jan 9, 2017 с Jiuquan Satellite Launch Center

Loading…

Ближайшие Пролёты (ближайшие 24 часа)

TLE

СвежийSource: Space-Track

Эпоха: Sep 14, 2026, 22:24 UTC

1 41914U 17002B   26257.93341839  .00013165  00000-0  29476-3 0  9998
2 41914  97.1977 263.8963 0005114 182.1063 178.0165 15.43565194535699

Отслеживайте JILIN-1-03 в реальном времени с AllMySat

Download on the App Store